Savannah, GA

9:53 PM EDT on April 26, 2018 (GMT -0400)
Savannah International

Weather History for KSAV - October, 2013

Change the Weather History Date:

Saturday, October 12, 2013

  Actual Average Record
Temperature  
Mean Temperature 72 °F 69 °F  
Max Temperature 87 °F 79 °F 91 °F (1939)
Min Temperature 57 °F 59 °F 40 °F (2000)
Degree Days  
Heating Degree Days 0 1  
Month to date heating degree days 0 10  
Since 1 July heating degree days 0 12  
Cooling Degree Days 7 5  
Month to date cooling degree days 98 81  
Year to date cooling degree days 2332 2347  
Growing Degree Days 22 (Base 50)    
Moisture  
Dew Point 58 °F    
Average Humidity 64    
Maximum Humidity 93    
Minimum Humidity 35    
Precipitation  
Precipitation 0.00 in 0.14 in 6.94 in (1994)
Month to date precipitation 0.09 1.76  
Year to date precipitation 49.04 40.71  
Sea Level Pressure  
Sea Level Pressure 30.00 in    
Wind  
Wind Speed 2 mph (WSW)    
Max Wind Speed 10 mph    
Max Gust Speed 18 mph    
Visibility 10 miles    
Events      
T = Trace of Precipitation, MM = Missing Value Source: NWS Daily Summary

Daily Weather History Graph

Daily Weather History Graph

Search for Another Location

Airport or City:

Astronomy

Oct. 12, 2013 Rise Set
Actual Time 7:26 AM EDT 6:55 PM EDT
Civil Twilight 7:01 AM EDT 7:20 PM EDT
Nautical Twilight 6:33 AM EDT 7:48 PM EDT
Astronomical Twilight 6:05 AM EDT 8:16 PM EDT
Moon 2:44 PM EDT (10/12) 12:50 AM EDT (10/12)
Length of Visible Light 12h 18m
Length of Day
11h 29m
First Quarter, 58% of the Moon is Illuminated
Oct 12
First Quarter
Oct 18
Full
Oct 26
Last Quarter
Nov 3
New
Nov 10
First Quarter

Hourly Weather History & Observations

Time (EDT) Temp. Heat Index Dew Point Humidity Pressure Visibility Wind Dir Wind Speed Gust Speed Precip Events Conditions
12:53 AM 63.0 °F - 57.0 °F 81% 29.97 in 10.0 mi Calm Calm - N/A   Clear
1:53 AM 61.0 °F - 55.9 °F 83% 29.97 in 10.0 mi Calm Calm - N/A   Clear
2:53 AM 61.0 °F - 57.0 °F 87% 29.96 in 10.0 mi West 3.5 mph - N/A   Clear
3:53 AM 62.1 °F - 57.0 °F 84% 29.96 in 10.0 mi West 4.6 mph - N/A   Clear
4:53 AM 60.1 °F - 55.9 °F 86% 29.96 in 10.0 mi Calm Calm - N/A   Clear
5:53 AM 60.1 °F - 55.0 °F 83% 29.98 in 10.0 mi Calm Calm - N/A   Clear
6:53 AM 59.0 °F - 55.0 °F 87% 30.00 in 10.0 mi Calm Calm - N/A   Clear
7:53 AM 57.9 °F - 55.0 °F 90% 30.01 in 10.0 mi Calm Calm - N/A   Clear
8:53 AM 63.0 °F - 57.0 °F 81% 30.02 in 10.0 mi Calm Calm - N/A   Partly Cloudy
9:53 AM 70.0 °F - 57.9 °F 65% 30.04 in 10.0 mi Calm Calm - N/A   Partly Cloudy
10:53 AM 75.9 °F - 59.0 °F 56% 30.04 in 10.0 mi Calm Calm - N/A   Partly Cloudy
11:53 AM 82.0 °F 82.1 °F 59.0 °F 45% 30.04 in 10.0 mi Variable 3.5 mph - N/A   Clear
12:53 PM 82.9 °F 82.4 °F 57.0 °F 41% 30.01 in 10.0 mi Variable 6.9 mph - N/A   Partly Cloudy
1:53 PM 84.0 °F 82.9 °F 55.0 °F 37% 29.99 in 10.0 mi Variable 5.8 mph - N/A   Partly Cloudy
2:53 PM 84.0 °F 83.0 °F 55.9 °F 38% 29.98 in 10.0 mi Calm Calm - N/A   Partly Cloudy
3:53 PM 86.0 °F 84.7 °F 55.9 °F 36% 29.98 in 10.0 mi Variable 3.5 mph - N/A   Partly Cloudy
4:53 PM 86.0 °F 84.7 °F 55.9 °F 36% 29.98 in 10.0 mi Calm Calm - N/A   Partly Cloudy
5:53 PM 84.9 °F 83.7 °F 55.9 °F 37% 29.99 in 10.0 mi NW 3.5 mph - N/A   Scattered Clouds
6:53 PM 78.1 °F - 61.0 °F 56% 30.00 in 10.0 mi Calm Calm - N/A   Scattered Clouds
7:53 PM 73.9 °F - 61.0 °F 64% 30.01 in 10.0 mi East 3.5 mph - N/A   Overcast
8:53 PM 73.9 °F - 63.0 °F 68% 30.02 in 10.0 mi ESE 3.5 mph - N/A   Mostly Cloudy
9:53 PM 75.0 °F - 64.0 °F 69% 30.04 in 10.0 mi South 3.5 mph - N/A   Overcast
10:53 PM 73.9 °F - 64.9 °F 73% 30.05 in 10.0 mi Calm Calm - N/A   Overcast
11:53 PM 73.0 °F - 66.0 °F 79% 30.05 in 10.0 mi Calm Calm - N/A   Overcast